Weather History for White Plains, NY

Change the Weather History Date:

Sunday, October 27, 2013

  Actual Average Record
Temperature  
Mean Temperature 49 °F -  
Max Temperature 57 °F 56 °F 72 °F (1989)
Min Temperature 41 °F 40 °F 26 °F (1976)
Degree Days  
Heating Degree Days 16    
Moisture  
Dew Point 30 °F    
Average Humidity 50    
Maximum Humidity 70    
Minimum Humidity 33    
Precipitation  
Precipitation 0.00 in - - ()
Sea Level Pressure  
Sea Level Pressure 29.96 in    
Wind  
Wind Speed 6 mph (West)    
Max Wind Speed 17 mph    
Max Gust Speed 26 mph    
Visibility 10 miles    
Events Rain    
Averages and records for this station are not official NWS values.
T = Trace of Precipitation, MM = Missing Value Source: NWS Daily Summary

Daily Weather History Graph

Daily Weather History Graph

Search for Another Location

Airport:

Trip Planner

Search our weather history database for the weather conditions in past years. The results will help you decide how hot, cold, wet, or windy it might be!

Date:

Astronomy

Oct. 27, 2013 Rise Set
Actual Time 7:20 AM EDT 5:56 PM EDT
Civil Twilight 6:51 AM EDT 6:24 PM EDT
Nautical Twilight 6:19 AM EDT 6:57 PM EDT
Astronomical Twilight 5:47 AM EDT 7:29 PM EDT
Moon 12:11 AM EDT (10/27) 2:07 PM EDT (10/27)
Length of Visible Light 11h 33m
Length of Day
10h 36m
Last Quarter, 44% of the Moon is Illuminated
Oct 27
Last Quarter
Nov 3
New
Nov 10
First Quarter
Nov 17
Full
Nov 25
Last Quarter

Hourly Weather History & Observations

Time (EDT) Temp. Windchill Dew Point Humidity Pressure Visibility Wind Dir Wind Speed Gust Speed Precip Events Conditions
12:56 AM 48.9 °F - 28.0 °F 44% 29.88 in 10.0 mi Calm Calm - N/A   Overcast
1:56 AM 48.0 °F - 30.9 °F 52% 29.88 in 10.0 mi SW 4.6 mph - 0.00 in Rain Light Rain
2:56 AM 46.9 °F - 32.0 °F 56% 29.86 in 10.0 mi Calm Calm - 0.00 in   Overcast
3:56 AM 46.9 °F - 32.0 °F 56% 29.85 in 10.0 mi Calm Calm - 0.00 in   Overcast
4:56 AM 46.9 °F - 30.0 °F 52% 29.86 in 10.0 mi WSW 5.8 mph - N/A   Mostly Cloudy
5:56 AM 45.0 °F - 30.0 °F 56% 29.88 in 10.0 mi Calm Calm - N/A   Clear
6:56 AM 43.0 °F 39.5 °F 30.0 °F 60% 29.90 in 10.0 mi West 5.8 mph - N/A   Clear
7:56 AM 44.1 °F 39.5 °F 30.0 °F 58% 29.92 in 10.0 mi West 8.1 mph - N/A   Clear
8:56 AM 46.0 °F 41.4 °F 30.9 °F 56% 29.94 in 10.0 mi West 9.2 mph - N/A   Clear
9:56 AM 48.9 °F - 32.0 °F 52% 29.94 in 10.0 mi WNW 17.3 mph 20.7 mph N/A   Partly Cloudy
10:56 AM 51.1 °F - 30.9 °F 46% 29.96 in 10.0 mi WNW 16.1 mph 20.7 mph N/A   Clear
11:56 AM 54.0 °F - 30.9 °F 41% 29.96 in 10.0 mi West 9.2 mph 19.6 mph N/A   Scattered Clouds
12:56 PM 55.0 °F - 30.0 °F 38% 29.94 in 10.0 mi WNW 13.8 mph - N/A   Scattered Clouds
1:56 PM 55.0 °F - 28.9 °F 37% 29.93 in 10.0 mi NW 12.7 mph 21.9 mph N/A   Scattered Clouds
2:56 PM 55.9 °F - 27.0 °F 33% 29.93 in 10.0 mi WNW 16.1 mph 24.2 mph N/A   Scattered Clouds
3:56 PM 53.1 °F - 27.0 °F 37% 29.95 in 10.0 mi WNW 16.1 mph 26.5 mph N/A   Scattered Clouds
4:56 PM 53.1 °F - 27.0 °F 37% 29.97 in 10.0 mi WNW 11.5 mph 18.4 mph N/A   Scattered Clouds
5:56 PM 52.0 °F - 27.0 °F 38% 30.00 in 10.0 mi WNW 9.2 mph - N/A   Scattered Clouds
6:56 PM 50.0 °F - 28.0 °F 43% 30.03 in 10.0 mi West 6.9 mph - N/A   Scattered Clouds
7:56 PM 46.9 °F - 28.9 °F 50% 30.04 in 10.0 mi Calm Calm - N/A   Scattered Clouds
8:56 PM 45.0 °F 43.5 °F 30.0 °F 56% 30.07 in 10.0 mi WSW 3.5 mph - N/A   Partly Cloudy
9:56 PM 43.0 °F - 32.0 °F 65% 30.09 in 10.0 mi Calm Calm - N/A   Clear
10:56 PM 43.0 °F 41.3 °F 30.9 °F 62% 30.12 in 10.0 mi WNW 3.5 mph - N/A   Clear
11:56 PM 41.0 °F 39.0 °F 32.0 °F 70% 30.12 in 10.0 mi West 3.5 mph - N/A   Clear